This is the latest recevied weather packets stored in our database for station/object N5COP-13. If no packets are shown the sender has not sent any weather packets the latest 10 day(s).
| Time | Temp. | Humidity | Pressure | Rain* | Wind** | Luminosity | Snow |
|---|---|---|---|---|---|---|---|
| 1777976782 | 15° C | 48% | 1007.3 hPa | 0 mm | - | 0 W/m² | - |
| 1777976480 | 15.56° C | 45% | 1007.5 hPa | 0 mm | - | 0 W/m² | - |
| 1777976178 | 16.11° C | 42% | 1007.4 hPa | 0 mm | - | 0 W/m² | - |
| 1777975874 | 16.67° C | 39% | 1007.4 hPa | 0 mm | - | 0 W/m² | - |
| 1777975570 | 17.22° C | 34% | 1007 hPa | 0 mm | - | 0 W/m² | - |
| 1777975268 | 17.22° C | 31% | 1006.8 hPa | 0 mm | - | 0 W/m² | - |
| 1777974964 | 17.78° C | 30% | 1006.6 hPa | 0 mm | - | 0 W/m² | - |
| 1777974660 | 17.78° C | 30% | 1006.6 hPa | 0 mm | - | 0 W/m² | - |
| 1777974357 | 17.22° C | 30% | 1006.2 hPa | 0 mm | - | 0 W/m² | - |
| 1777974053 | 17.22° C | 30% | 1006.4 hPa | 0 mm | - | 0 W/m² | - |
| 1777973749 | 17.22° C | 30% | 1006.1 hPa | 0 mm | - | 0 W/m² | - |
| 1777973447 | 17.78° C | 29% | 1006 hPa | 0 mm | - | 0 W/m² | - |
| 1777973144 | 18.33° C | 29% | 1005.9 hPa | 0 mm | - | 0 W/m² | - |
| 1777972843 | 17.78° C | 30% | 1005.6 hPa | 0 mm | - | 0 W/m² | - |
| 1777972539 | 16.67° C | 31% | 1005.5 hPa | 0 mm | - | 0 W/m² | - |
| 1777972238 | 16.67° C | 31% | 1005.6 hPa | 0 mm | - | 0 W/m² | - |
| 1777971935 | 17.22° C | 30% | 1005.2 hPa | 0 mm | - | 0 W/m² | - |
| 1777971633 | 17.22° C | 29% | 1005.2 hPa | 0 mm | - | 0 W/m² | - |
| 1777971330 | 17.78° C | 29% | 1005.1 hPa | 0 mm | - | 0 W/m² | - |
| 1777971028 | 18.33° C | 29% | 1005.1 hPa | 0 mm | - | 0 W/m² | - |
| 1777970726 | 18.33° C | 29% | 1005 hPa | 0 mm | - | 0 W/m² | - |
| 1777970424 | 18.89° C | 28% | 1005 hPa | 0 mm | - | 0 W/m² | - |
| 1777970121 | 18.89° C | 28% | 1005 hPa | 0 mm | - | 0 W/m² | - |
| 1777969817 | 18.89° C | 28% | 1005 hPa | 0 mm | - | 0 W/m² | - |
| 1777969513 | 19.44° C | 27% | 1005.1 hPa | 0 mm | - | 0 W/m² | - |
* Rain latest hour (hover to see other rain measurements)
** Current wind speed in m/s (hover to see current wind gust speed)